sat.trackr.live / text

‹ back to catalog

STARLINK-4321

NORAD 53082 · 2022-077AR

PAYLOAD ACTIVE UNKNOWN

§ Identity

Operator
Country
US
Launch date
2022-07-11
Launch site
AFWTR
Launch vehicle
Mass (kg)
RCS (m²)

Purposes: comms

External: N2YO · Heavens-Above · Gunter

§ Orbital elements

Epoch: 2026-05-25T02:11:06.287136Z

Period
95.64 min
Inclination
97.4465°
Eccentricity
0.0001082
Mean motion
15.05628655 rev/d
Perigee alt
548.8 km
Apogee alt
550.3 km
Semi-major
6,927.7 km
B*
3.4141e-4
RAAN
324.9631°
Arg perigee
78.2075°
Mean anomaly
281.9274°
Rev number
21,240

§ Raw data

STARLINK-43211 53082U 22077AR  26145.09104499  .00004868  00000+0  34141-3 0  99912 53082  97.4465 324.9631 0001082  78.2075 281.9274 15.05628655212408

JSON: /api/v1/satellites/53082 · /tle

For live sub-satellite position, see the globe view (requires WebGL).

§ Visibility from observer

Set your observer location to see the next 7 days of passes ≥ 10°. The values pass through the URL so the page stays shareable.

No JS? Fill the form by hand. The geolocation button needs JavaScript.